Forecast for Flamstone Farm, Bishopstone - last updated: Wed 10 Aug 11:00
Today     DescriptionTempPrecip.Rain risk%Pressure Wind AvGustHumidityVisibility
Wed 10 Aug     DescriptionTempPrecip.Rain risk%Pressure Wind AvGustHumidityVisibility
10:00 GMTSunny day23.2°C - 0 % 1026 mb10 mph55 %10.8 mls
13:00 GMTSunny day27.3°C - 0 % 1025 mb11 mph38 %14.7 mls
16:00 GMTSunny day30.1°C - 0 % 1023 mb10 mph30 %13.3 mls
19:00 GMTSunny day30.1°C - 0 % 1022 mb11 mph38 %14.3 mls
22:00 GMTClear night28.6°C - 0 % 1023 mb6 mph74 %12.0 mls
01:00 GMTClear night21.0°C - 0 % 1023 mb12 mph66 %14.9 mls
04:00 GMTClear night18.9°C - 0 % 1023 mb12 mph78 %14.8 mls
07:00 GMTSunny day17.0°C - 0 % 1023 mb13 mph79 %13.3 mls
Thu 11 Aug     DescriptionTempPrecip.Rain risk%Pressure Wind AvGustHumidityVisibility
10:00 GMTSunny day24.8°C - 0 % 1023 mb10 mph51 %15.8 mls
13:00 GMTSunny day30.0°C - 0 % 1022 mb10 mph30 %22.3 mls
16:00 GMTSunny day31.8°C - 0 % 1020 mb11 mph26 %21.1 mls
19:00 GMTSunny day31.8°C - 0 % 1019 mb12 mph30 %20.5 mls
22:00 GMTClear night30.1°C - 0 % 1020 mb6 mph61 %16.9 mls
01:00 GMTClear night22.1°C - 0 % 1021 mb11 mph60 %16.5 mls
04:00 GMTClear night19.5°C - 0 % 1020 mb13 mph67 %16.3 mls
07:00 GMTSunny day18.9°C - 0 % 1020 mb14 mph68 %15.9 mls
Fri 12 Aug     DescriptionTempPrecip.Rain risk%Pressure Wind AvGustHumidityVisibility
10:00 GMTSunny day25.6°C - 0 % 1020 mb15 mph48 %18.8 mls
13:00 GMTSunny day30.9°C - 0 % 1019 mb18 mph27 %22.5 mls
16:00 GMTSunny day32.1°C - 0 % 1018 mb18 mph26 %23.2 mls
19:00 GMTSunny day32.0°C - 0 % 1017 mb15 mph34 %23.9 mls
22:00 GMTClear night28.8°C - 0 % 1018 mb7 mph54 %21.1 mls
01:00 GMTClear night23.4°C - 0 % 1018 mb12 mph54 %21.2 mls
04:00 GMTClear night20.3°C - 0 % 1017 mb13 mph66 %19.5 mls
07:00 GMTSunny day19.6°C - 0 % 1017 mb13 mph68 %19.3 mls
Sat 13 Aug     DescriptionTempPrecip.Rain risk%Pressure Wind AvGustHumidityVisibility
10:00 GMTSunny day25.5°C - 0 % 1017 mb16 mph48 %21.4 mls
13:00 GMTSunny day30.9°C - 0 % 1016 mb19 mph28 %23.5 mls
16:00 GMTSunny day31.4°C - 1 % 1015 mb23 mph24 %23.7 mls
19:00 GMTSunny day31.2°C - 0 % 1014 mb15 mph27 %23.8 mls
22:00 GMTPartly cloudy (night)28.6°C - 1 % 1014 mb8 mph49 %22.6 mls
01:00 GMTClear night23.3°C - 0 % 1013 mb10 mph49 %21.5 mls
04:00 GMTClear night20.0°C - 0 % 1012 mb12 mph52 %21.2 mls
07:00 GMTSunny day19.4°C - 1 % 1011 mb12 mph59 %19.9 mls
Sun 14 Aug     DescriptionTempPrecip.Rain risk%Pressure Wind AvGustHumidityVisibility
10:00 GMTPartly cloudy (day)26.3°C - 2 % 1010 mb16 mph42 %21.5 mls
13:00 GMTCloudy30.9°C - 6 % 1009 mb21 mph26 %22.7 mls
16:00 GMTCloudy30.8°C - 7 % 1007 mb19 mph31 %22.1 mls
19:00 GMTCloudy29.1°C - 9 % 1007 mb14 mph41 %21.0 mls
22:00 GMTCloudy26.0°C - 8 % 1007 mb12 mph62 %18.9 mls
01:00 GMTCloudy21.4°C - 8 % 1006 mb6 mph71 %17.1 mls
04:00 GMTCloudy19.5°C - 10 % 1005 mb8 mph76 %15.6 mls
07:00 GMTPartly cloudy (day)19.4°C - 8 % 1004 mb9 mph77 %15.7 mls
Mon 15 Aug     DescriptionTempPrecip.Rain risk%Pressure Wind AvGustHumidityVisibility
10:00 GMTSunny day22.8°C - 8 % 1005 mb17 mph62 %17.4 mls
13:00 GMTCloudy25.6°C - 17 % 1004 mb21 mph50 %12.4 mls
16:00 GMTLight rain shower (day)25.5°C1.1 mm36 % 1004 mb22 mph50 %19.8 mls
19:00 GMTLight rain shower (day)25.1°C - 30 % 1005 mb19 mph56 %19.3 mls
22:00 GMTCloudy23.3°C - 8 % 1006 mb12 mph79 %16.3 mls
01:00 GMTCloudy19.4°C - 11 % 1006 mb12 mph92 %11.6 mls
04:00 GMTCloudy17.7°C - 11 % 1006 mb11 mph94 %8.3 mls
07:00 GMTCloudy17.2°C - 12 % 1007 mb11 mph95 %8.2 mls
Never base important decisions that could result in harm to people or property on this weather information.